CZ-3B DEB, 40167

Orbit data source: Space-Track

CZ-3B DEB, 40167 is space debris in HEO originally from a launch on Sat, 04 Sep 2010 UTC launched from the Xichang Space Center, China (XSC). Debris objects in space refer to the collection of defunct objects orbiting the Earth. Examples of debris include non-operational satellites, rocket bodies, and fragments generated from explosions, collisions, or faulty payload assembly.

Loading next visibility...
Identifier
40167, 2010-042U
Orbit
HEO
Country
Flag of CNCN / PRC
Related business
Manufacturer
CALT
Mission
Spacecraft
Bus & Motor
Unknown
Mass
Unknown
Launch date (UTC)
2010-09-04 (15 years ago)
Launch vehicle
Unknown
Launch site
Xichang Space Center, China (XSC)
Object type
Payload
Rocket body
Debris
Shape & HBR
Unknown shape, 0.2 m
Radar Cross Section
Medium (>0.1 m² and <1 m²)

Expand to show TLE details & history
Last TLE update: 2 weeks ago

TLE from 2 weeks ago
0 CZ-3B DEB
1 40167U 10042U   25301.52874070 -.00000143  00000-0  00000-0 0  9998
2 40167  27.2881 330.2138 7166567 234.2787  36.7301  1.93653130 91077
Epoch: 2025-10-28T12:41Z
TLE epoch observation values (Epoch: 2025-10-28T12:41:23.196Z)
Latitude
-0.00003°
Longitude
102.73051°
Altitude
16,307.695 km
Speed
4.525 km/s
True Right ascension
22h 00m 46s
True Declination
0° 00' 00"
Sunlit
Object was in daylight at epoch
Visualization orbit readout
Latitude
Unknown
Longitude
Unknown
Altitude
Unknown
Speed
Unknown
Apparent Right ascension
Unknown
Apparent Declination
Unknown
Sunlit
N/A
Visualization observer readout
Local Sidereal Time
04:05:08
Azimuth
Unknown
Elevation
Unknown
Doppler factor
Unknown
Orbital elements
Apogee altitude
40,300.852 km
Perigee altitude
1,326.478 km
Semi-major axis
27,191.802 km
Eccentricity
0.71666
Inclination
27.2881°
RAAN
330.2138°
Arg. of periapsis
234.2787°
True anomaly
125.62873°
Mean anomaly
36.7301°
Eccentric anomaly
76.68825°
Mean motion
0.48405 °/min
Orbital period
743.73 mins
BSTAR
0
Loading maneuver chart data...
Computing Atmospheric mass density...
Loading historical data...
Loading historical data...
Loading historical data...
Loading historical data...
Loading historical data...
Loading historical data...
Loading historical data...

Documentation

Showing up to 5 results
|